Weather in Skala

Greece     38°04′26″N   20°47′50″E
temp.,
°C
wind,
m/s
gust,
m/s
humid.,
%
clouds,
%
prec.,
mm/h
press.,
hPa
HPBL,
m
13 april, tue
tue1300:00+15n0159100 0.0 1022183
03:00+15wnw1161100 0.0 1021189
06:00+15ene336599 0.0 1020275
09:00+15w226294 0.0 1020319
12:00+16w115693 0.0 1020290
15:00+17s335256 0.0 1019404
18:00+16w666058 0.0 1018407
21:00+16w44685 0.0 1018342
14 april, wed
wed1400:00+15sw23690 0.0 1018363
03:00+15w22685 0.0 1017455
06:00+15wnw116813 0.0 1016369
09:00+15wsw22696 0.0 1017486
12:00+15w6572100 0.0 1017677
15:00+16nnw226490 0.0 1017556
18:00+15ssw026494 0.0 1016495
21:00+15nw336013 0.0 1017344
15 april, thu
thu1500:00+13nnw33634 0.0 1017196
03:00+13nnw556617 0.0 1017292
06:00+12nw33645 0.0 1017282
09:00+12nnw11628 0.0 1018323
12:00+14s1258100 0.0 1018675
15:00+15w2251100 0.0 1017903
18:00+15w0354100 0.0 1016693
21:00+15w225699 0.0 1017506
16 april, fri
fri1600:00+14nne115594 0.0 1017190
03:00+13nw115698 0.0 1016178
06:00+13nne225768 0.0 1015204
09:00+14ne3361100 0.0 1015309
12:00+14ne5560100 0.1 1016385
15:00+15ene8860100 0.4 1014716
18:00+15ne9972100 0.0 1011506
21:00+15ne111081100 0.0 1009395
17 april, sat
sat1700:00+15ene111183100 0.3 1008373
03:00+15ne131283100 0.9 1006414
06:00+15ne9981100 0.0 1004308
09:00+16ne7775100 0.0 1005191
12:00+17ene77723 0.0 1005274
15:00+18ene56680 0.0 1003184
18:00+18s588613 0.1 1003271
21:00+17s459199 0.7 1006146